Location: Boitzum
(52.1496°N, 9.6943°E)
Time: 14:15:41
(UTC+00:00)

GEOS 3 Rocket - Pass Details

Date: 13 January 2026
Orbit: 768 x 845 km, 115.0° (Epoch: 16 February)

Event Time Altitude Azimuth Distance (km) Brightness Sun altitude
Rises 03:41:58 0° 122° (ESE) 3,322 7.4 -33.2°
Reaches altitude 10° 03:44:15 10° 120° (ESE) 2,404 6.6 -32.9°
Enters shadow 03:48:27 54° 89° (E) 999 4.2 -32.2°
